Location: G�rlitz
(51.1670°N, 15.0000°E)
Time: 19:50:35
(UTC+01:00)

Envisat - Pass Details

Date: 22 February 2026
Orbit: 761 x 763 km, 98.4° (Epoch: 11 March)

Event Time Altitude Azimuth Distance (km) Brightness Sun altitude
Rises 03:44:11 0° 9° (N) 3,237 6.7 -30.8°
Reaches altitude 10° 03:46:37 10° 2° (N) 2,307 5.7 -30.5°
Enters shadow 03:48:25 21° 350° (N) 1,686 4.8 -30.2°
